Champaign, IL

1:19 AM CDT on June 25, 2017 (GMT -0500)
Univ Of Illinois-Willard

Weather History for KCMI - August, 2014

Change the Weather History Date:

Wednesday, August 20, 2014

  Actual Average Record
Temperature  
Mean Temperature 71 °F 72 °F  
Max Temperature 80 °F 83 °F 94 °F (2010)
Min Temperature 61 °F 61 °F 50 °F (2012)
Degree Days  
Heating Degree Days 0 0  
Month to date heating degree days 2 0  
Since 1 June heating degree days 9 19  
Since 1 July heating degree days 9 2  
Cooling Degree Days 6 7  
Month to date cooling degree days 118 157  
Year to date cooling degree days 710 754  
Since 1 June cooling degree days 558 662  
Growing Degree Days 20 (Base 50)    
Moisture  
Dew Point 67 °F    
Average Humidity 87    
Maximum Humidity 100    
Minimum Humidity 74    
Precipitation  
Precipitation 0.13 in 0.13 in 1.04 in (1951)
Month to date precipitation 0.67 2.07  
Year to date precipitation 27.53 25.74  
Sea Level Pressure  
Sea Level Pressure 29.91 in    
Wind  
Wind Speed 6 mph (SW)    
Max Wind Speed 15 mph    
Max Gust Speed 18 mph    
Visibility 5 miles    
Events Fog , Rain , Thunderstorm    
T = Trace of Precipitation, MM = Missing Value Source: NWS Daily Summary

Daily Weather History Graph

Daily Weather History Graph

Search for Another Location

Airport or City:

Trip Planner

Search our weather history database for the weather conditions in past years. The results will help you decide how hot, cold, wet, or windy it might be!

Date:

Astronomy

Aug. 20, 2014 Rise Set
Actual Time 6:09 AM CDT 7:42 PM CDT
Civil Twilight 5:40 AM CDT 8:11 PM CDT
Nautical Twilight 5:06 AM CDT 8:45 PM CDT
Astronomical Twilight 4:29 AM CDT 9:22 PM CDT
Moon 1:49 AM CDT (8/20) 4:27 PM CDT (8/20)
Length of Visible Light 14h 30m
Length of Day
13h 33m
Waning Crescent, 20% of the Moon is Illuminated
Aug 20
Waning Crescent
Aug 25
New
Sep 2
First Quarter
Sep 8
Full
Sep 15
Last Quarter

Hourly Weather History & Observations

Time (CDT) Temp. Dew Point Humidity Pressure Visibility Wind Dir Wind Speed Gust Speed Precip Events Conditions
12:53 AM 66.0 °F 64.9 °F 96% 29.83 in 10.0 mi WSW 4.6 mph - N/A   Clear
1:53 AM 66.0 °F 64.9 °F 96% 29.83 in 8.0 mi WSW 3.5 mph - N/A   Clear
2:53 AM 64.9 °F 64.0 °F 97% 29.83 in 3.0 mi Calm Calm - N/A   Clear
2:55 AM 64.0 °F 63.0 °F 96% 29.85 in 1.8 mi Calm Calm - N/A   Clear
3:10 AM 64.0 °F 63.0 °F 96% 29.85 in 2.0 mi Calm Calm - N/A   Clear
3:23 AM 64.0 °F 62.1 °F 93% 29.85 in 4.0 mi West 3.5 mph - N/A   Clear
3:28 AM 64.0 °F 63.0 °F 96% 29.85 in 1.2 mi West 3.5 mph - N/A   Clear
3:35 AM 64.9 °F 63.0 °F 93% 29.86 in 0.5 mi West 3.5 mph - N/A Fog Fog
3:42 AM 64.0 °F 63.0 °F 96% 29.86 in 0.2 mi West 3.5 mph - N/A Fog Fog
3:53 AM 64.0 °F 63.0 °F 96% 29.84 in 0.2 mi Calm Calm - N/A Fog Fog
4:09 AM 62.1 °F 62.1 °F 100% 29.86 in 0.2 mi Calm Calm - N/A Fog Fog
4:19 AM 63.0 °F 62.1 °F 97% 29.86 in 0.2 mi Calm Calm - N/A Fog Fog
4:30 AM 62.1 °F 62.1 °F 100% 29.86 in 0.2 mi WSW 3.5 mph - N/A Fog Fog
4:37 AM 62.1 °F 62.1 °F 100% 29.86 in 0.2 mi Calm Calm - N/A Fog Fog
4:53 AM 62.1 °F 62.1 °F 100% 29.85 in 0.2 mi Calm Calm - N/A Fog Fog
5:17 AM 63.0 °F 62.1 °F 97% 29.87 in 0.2 mi West 3.5 mph - N/A Fog Fog
5:53 AM 62.1 °F 62.1 °F 100% 29.87 in 0.2 mi Calm Calm - N/A Fog Fog
6:13 AM 63.0 °F 62.1 °F 97% 29.89 in 0.1 mi SSW 4.6 mph - N/A Fog Fog
6:23 AM 63.0 °F 62.1 °F 97% 29.89 in 0.2 mi SSW 4.6 mph - N/A Fog Fog
6:43 AM 63.0 °F 63.0 °F 100% 29.89 in 0.2 mi SW 5.8 mph - N/A Fog Fog
6:50 AM 64.4 °F 64.4 °F 100% 29.90 in 0.2 mi SW 5.8 mph - N/A Fog Fog
6:53 AM 64.9 °F 64.0 °F 97% 29.89 in 0.1 mi SW 5.8 mph - N/A Fog Fog
7:14 AM 66.0 °F 66.0 °F 100% 29.90 in 0.8 mi SSW 3.5 mph - N/A   Mist
7:22 AM 66.9 °F 66.9 °F 100% 29.90 in 2.0 mi Calm Calm - N/A   Scattered Clouds
7:31 AM 68.0 °F 66.9 °F 96% 29.90 in 4.0 mi SSW 3.5 mph - N/A   Partly Cloudy
7:53 AM 70.0 °F 69.1 °F 97% 29.91 in 5.0 mi SW 3.5 mph - N/A   Clear
8:53 AM 75.0 °F 72.0 °F 90% 29.91 in 10.0 mi SW 3.5 mph - N/A   Scattered Clouds
9:53 AM 78.1 °F 70.0 °F 76% 29.92 in 10.0 mi South 4.6 mph - N/A   Partly Cloudy
10:16 AM 79.0 °F 70.0 °F 74% 29.95 in 10.0 mi SW 6.9 mph - N/A Thunderstorm Partly Cloudy
10:31 AM 78.1 °F 70.0 °F 76% 29.97 in 10.0 mi SSW 6.9 mph - N/A   Mostly Cloudy
10:53 AM 75.9 °F 70.0 °F 82% 29.96 in 10.0 mi SSW 6.9 mph - N/A   Mostly Cloudy
11:12 AM 75.0 °F 71.1 °F 87% 29.97 in 10.0 mi SSW 9.2 mph - N/A Thunderstorm Mostly Cloudy
11:24 AM 75.0 °F 72.0 °F 90% 29.97 in 10.0 mi SW 8.1 mph - 0.00 in Rain , Thunderstorm Light Thunderstorms and Rain
11:48 AM 73.4 °F 71.6 °F 94% 30.02 in 7.0 mi West 10.4 mph - 0.01 in Rain , Thunderstorm Light Rain
11:53 AM 73.0 °F 70.0 °F 90% 30.01 in 6.0 mi West 10.4 mph - 0.01 in Rain , Thunderstorm Light Rain
12:16 PM 72.0 °F 70.0 °F 93% 30.00 in 4.0 mi South 3.5 mph - 0.05 in Rain , Thunderstorm Rain
12:53 PM 71.1 °F 70.0 °F 96% 29.97 in 7.0 mi South 11.5 mph - 0.10 in Rain , Thunderstorm Light Rain
1:04 PM 71.1 °F 70.0 °F 96% 29.97 in 7.0 mi SSE 9.2 mph - 0.01 in Rain Light Rain
1:53 PM 73.9 °F 70.0 °F 87% 29.97 in 10.0 mi SW 8.1 mph - 0.02 in   Scattered Clouds
2:53 PM 73.9 °F 69.1 °F 85% 29.93 in 10.0 mi South 5.8 mph - N/A   Clear
3:53 PM 75.9 °F 69.1 °F 79% 29.93 in 10.0 mi SSW 13.8 mph - N/A   Partly Cloudy
4:53 PM 79.0 °F 70.0 °F 74% 29.93 in 10.0 mi SW 12.7 mph - N/A   Clear
5:53 PM 78.1 °F 69.1 °F 74% 29.93 in 10.0 mi SW 10.4 mph - N/A   Clear
6:53 PM 77.0 °F 71.1 °F 82% 29.93 in 10.0 mi WSW 4.6 mph - N/A   Scattered Clouds
7:53 PM 73.0 °F 70.0 °F 90% 29.93 in 10.0 mi SSW 6.9 mph - N/A   Clear
8:53 PM 73.0 °F 70.0 °F 90% 29.94 in 10.0 mi SSW 6.9 mph - N/A   Clear
9:53 PM 73.0 °F 70.0 °F 90% 29.97 in 10.0 mi South 10.4 mph - N/A   Clear
10:53 PM 72.0 °F 69.1 °F 91% 29.97 in 10.0 mi South 6.9 mph - N/A   Clear
11:53 PM 71.1 °F 69.1 °F 93% 29.97 in 10.0 mi South 5.8 mph - N/A   Clear